Regional Weather Roundup
Issued by NWS

Home | Current Version | Previous Version | Text Only | Print | Product List | Glossary On
Versions: 1 2 3 4 5 6 7 8 9 10 11 12 13 14 15 16 17 18 19 20 21 22 23 24 25 26 27 28 29 30 31 32 33 34 35 36 37 38 39 40 41 42 43 44 45 46 47 48 49 50
000
ASCA44 KEWX 231520
RWRMX

LATIN AMERICA AND CARIBBEAN REGIONAL WEATHER ROUNDUP
NATIONAL WEATHER SERVICE AUSTIN/SAN ANTONIO TX
900 AM CST THU NOV 23 2017

NOTE: "FAIR" INDICATED FEW OR NO CLOUDS BELOW 12,000 FEET WITH NO
SIGNIFICANT WEATHER AND/OR OBSTRUCTIONS TO VISIBILITY.

BAJA CALIFORNIA

CITY           SKY/WX    TMP DP  RH WIND       PRES   REMARKS
LORETO         SUNNY     75  52  43 NW6       29.94F
MEXICALI       CLEAR     59  37  44 NE3       30.05R
S.J. DEL CABO  SUNNY     63  50  63 CALM      29.98R
TIJUANA        CLEAR     64  37  36 CALM      30.04R

NORTHWESTERN MEXICO

CITY           SKY/WX    TMP DP  RH WIND       PRES   REMARKS
CULIACAN       SUNNY     70  43  37 CALM      29.93R
DURANGO        SUNNY     37  21  52 CALM      30.39R
GUAYMAS        SUNNY     72  43  35 CALM      29.90R
HERMOSILLO     SUNNY     63  32  31 CALM      29.99S
CD. JUAREZ     MOSUNNY   43  27  52 CALM      30.30R
LOS MOCHIS     SUNNY     64  57  77 CALM      29.95R
OBREGON        SUNNY     61  36  39 SW2       29.92R

NORTHEASTERN MEXICO

CITY           SKY/WX    TMP DP  RH WIND       PRES   REMARKS
CHIHUAHUA      SUNNY     41  23  48 S3        30.31R
MATAMOROS      SUNNY     54  45  71 NW8       30.22S
MONCLOVA         N/A    N/A N/A N/A MISG        N/A
MONTERREY      SUNNY     54  39  58 NW5       30.24R
NUEVO LAREDO   SUNNY     50  41  71 CALM      30.24R
PIEDRAS NEGRAS SUNNY     46  30  53 CALM      30.25
REYNOSA        SUNNY     54  39  58 NW5       30.24
SALTILLO       SUNNY     45  28  53 SW7       30.33S WCI  41
TORREON        SUNNY     52  27  37 CALM      30.29
CD. VICTORIA   SUNNY     57  43  58 CALM      30.25S

WESTERN MEXICO

CITY           SKY/WX    TMP DP  RH WIND       PRES   REMARKS
AGUASCALIENTES SUNNY     46  28  49 N12       30.36R WCI  41
COLIMA         SUNNY     72  54  53 N14       30.09R
DEL BAJIO      SUNNY     52  34  50 CALM      30.38R
GUADALAJARA    SUNNY     54  27  35 NE5       30.28R
MANZANILLO     MOSUNNY   82  75  78 N9        29.91R
MAZATLAN       SUNNY     66  63  88 CALM      29.95R
P. VALLARTA    SUNNY     72  66  83 CALM      29.93R
ZACATECAS      SUNNY     39  23  52 CALM      30.36R

CENTRAL MEXICO

CITY           SKY/WX    TMP DP  RH WIND       PRES   REMARKS
CUERNAVACA     MOSUNNY   64  43  45 CALM      30.22R
MEXICO CITY    SUNNY     45  34  65 E7        30.39R WCI  41
MORELIA        SUNNY     54  39  58 CALM      30.32R
PUEBLA         SUNNY     48  30  49 N3        30.37R
QUERETARO      SUNNY     45  37  76 E8        30.40R WCI  40
S. LUIS POTOSI SUNNY     43  32  65 CALM      30.36R FOG
TAMPICO        SUNNY     64  50  59 CALM      30.24
TOLUCA         SUNNY     45  36  70 CALM      30.41R HAZE

SOUTHERN MEXICO

CITY           SKY/WX    TMP DP  RH WIND       PRES   REMARKS
ACAPULCO       MOSUNNY   79  70  73 N5        29.95R
B. DE HUATULCO CLOUDY   N/A N/A N/A CALM      29.99R
OAXACA         CLOUDY    54  54 100 CALM      30.32R
P. ESCONDIDO   SUNNY     73  63  68 NE6       30.04R
VERACRUZ       SUNNY     72  57  60 N6        30.14S
ZIHUATANEJO    MOSUNNY   79  73  83 CALM      29.96R

YUCATAN PENINSULA

CITY           SKY/WX    TMP DP  RH WIND       PRES   REMARKS
CAMPECHE       PTSUNNY   77  68  73 NW7       29.95R
CANCUN         MOSUNNY   75  70  83 SW6       29.96R
CHETUMAL       MOSUNNY   77  70  78 NW12      30.00
CD. DEL CARMEN PTSUNNY  N/A N/A N/A NW23      30.05R
COZUMEL        MOSUNNY   77  72  83 W6        29.94S
MERIDA         CLOUDY    73  70  88 SW8       29.97R
MINATITLAN     MOSUNNY   75  64  69 N17       30.10R
TAPACHULA      MOSUNNY   82  68  61 NE2       29.91R
TUX. GUTIERREZ PTSUNNY   70  61  73 NW12      30.15R
VILLAHERMOSA   MOSUNNY   75  66  73 W10       30.12R

CENTRAL AMERICA

CITY           SKY/WX    TMP DP  RH WIND       PRES   REMARKS
BELIZE CITY    MOSUNNY   77  72  83 W10       30.01S
MANAGUA        PTSUNNY   84  73  70 SE5       29.89R HX  91

CARIBBEAN

CITY           SKY/WX    TMP DP  RH WIND       PRES   REMARKS
ARUBA          MOSUNNY   86  77  74 E18       29.89S HX  97
CURACAO        MOSUNNY   86  75  70 E12       29.89F HX  95
KINGSTON       PTSUNNY   84  73  70 SE5       29.92S HX  91
NASSAU         PTSUNNY   84  73  70 E9        29.94F HX  91
SAN JUAN       MOSUNNY   84  79  84 N3        29.94F HX  96
SANTO DOMINGO  MOSUNNY   82  77  83 E7        29.94S HX  91
ST. KITTS      PTSUNNY   86  77  74 NE12      29.92F HX  97
ST. MAARTEN    MOSUNNY   86  77  74 E7        29.94S HX  97
ST. THOMAS       N/A    N/A N/A N/A MISG      29.94F

$$




USA.gov is the U.S. government's official web portal to all federal, state and local government web resources and services.